Other Public Products
Issued by NWS Grand Forks, ND

Home | Current Version | Previous Version | Graphics & Text | Print | Product List | Glossary On
Versions: 1 2 3 4 5 6 7 8 9 10 11 12 13 14 15 16 17 18 19 20 21 22 23 24 25 26 27 28 29 30 31 32 33 34 35 36 37 38 39 40 41 42 43 44 45 46 47 48 49 50
000
FPUS83 KFGF 252110
OPUFGF
PRAIRIE TO PINES WEATHER ROUNDUP
NATIONAL WEATHER SERVICE EASTERN NORTH DAKOTA/GRAND FORKS ND
300 PM CST SAT FEB 25 2017

 **SATELLITE DATA USED TO AUGMENT SKY COVER AT AUTOMATED STATIONS**
 *****  WEATHER ACROSS EASTERN NORTH DAKOTA  *****

CITY           SKY/WX    TMP DP  RH WIND       PRES   REMARKS
GRAND FORKS    PTSUNNY   30  16  56 NW15      29.78S WCI  19
GRAND FORKS AF PTSUNNY   32  19  59 NW14      29.77F WCI  22
GRAND CITY NWS NOT AVBL
BUXTON         NOT AVBL
DEVILS LAKE    FAIR      24  15  68 W15       29.76F WCI  11
FARGO          CLOUDY    31  24  75 W13       29.80F WCI  21
WAHPETON ARPT  CLOUDY    32  27  80 NW12      29.81F WCI  23
$$

 *****  WEATHER ACROSS CENTRAL AND WESTERN NORTH DAKOTA  *****

CITY           SKY/WX    TMP DP  RH WIND       PRES   REMARKS
JAMESTOWN      PTSUNNY   28  20  71 NW10      29.77F WCI  19
BISMARCK       CLOUDY    29  20  69 VRB6      29.79F WCI  23
MINOT          FLURRIES  23  15  71 NW7       29.76F WCI  15
MINOT AFB      PTSUNNY   20  14  76 NW9       29.75F WCI   9
GARRISON         N/A     24  18  77 W6        29.76F WCI  17
WILLISTON      LGT SNOW  27  22  81 SW9       29.71F WCI  18
DICKINSON      PTSUNNY   28  19  69 W13       29.71F WCI  17
HETTINGER      CLOUDY    32  15  49 W15       29.75F WCI  22
$$

 *****  OTHER OBSERVATIONS NORTHEAST NORTH DAKOTA  *****

CITY           SKY/WX    TMP DP  RH WIND       PRES   REMARKS
WALHALLA       NOT AVBL
LANGDON        NOT AVBL
CAVALIER         N/A     25  14  63 NW13      29.78S WCI  13
GRAFTON        FAIR      25  18  74 NW18      29.80F WCI  11
CANDO          NOT AVBL
FORT TOTTEN      N/A     26  16  66 NW7       29.95S WCI  18
ROLLA          FAIR      16  10  79 N15       29.74S WCI   1
RUGBY            N/A     18  14  86 NW12      29.77F WCI   5
 ***** THE ABOVE OBSERVATIONS ARE NON NWS ARE NOT QUALITY
        CONTROLLED AND MAY MIS-REPORT RAIN FOR SNOW...
$$

 *****  OTHER OBSERVATIONS SOUTHEAST NORTH DAKOTA *****

CITY           SKY/WX    TMP DP  RH WIND       PRES   REMARKS
COOPERSTOWN    MOCLDY    27  21  80 NW14      29.78F WCI  15
VALLEY CITY    CLOUDY    28  25  86 NW10      29.80F WCI  19
OAKES          NOT AVBL
GWINNER        CLOUDY    32  28  86 NW12      29.80F WCI  23
SHEYENNE NWR     N/A     29  25  86 W10       29.95  WCI  20
BUFFALO        NOT AVBL
WYNDMERE       NOT AVBL
 ***** THE ABOVE OBSERVATIONS ARE NON NWS ARE NOT QUALITY
       CONTROLLED AND MAY MIS-REPORT RAIN FOR SNOW...
$$

  *****  WEATHER ACROSS NORTHERN MINNESOTA  *****

CITY           SKY/WX    TMP DP  RH WIND       PRES   REMARKS
FLAG ISLAND    FLURRIES  18  14  86 S12       29.70F WCI   5
WARROAD        CLOUDY    21  18  86 W13       29.73S WCI   9
ROSEAU         CLOUDY    25  18  74 W10G16    29.73F WCI  15
HALLOCK        CLOUDY    25  19  80 NW13      29.77S WCI  13
THF RVR FALLS    N/A     26  20  77 MISG        N/A
HALSTAD          N/A     30  23  76 W8          N/A  WCI  22
FOSSTON        LGT SNOW  27  21  80 SW13      29.76S WCI  16
BAUDETTE       CLOUDY    22  14  71 SW6       29.71F WCI  14
WASKISH        LGT SNOW  25  19  80 W3        29.72F
CROOKSTON      PTSUNNY   28  21  74 NW12G18   29.78F WCI  18
$$
  *****  WEATHER ACROSS CENTRAL AND WEST MINNESOTA  *****

CITY           SKY/WX    TMP DP  RH WIND       PRES   REMARKS
BEMIDJI        CLOUDY    28  19  69 W16       29.74S WCI  17
PARK RAPIDS    CLOUDY    29  18  63 SW15      29.76F WCI  18
WADENA         MIX PCPN  28  21  74 SW12      29.79S WCI  18
DETROIT LAKES  PTSUNNY   30  23  74 W9        29.78F WCI  22
MOORHEAD       CLOUDY    30  23  74 W12       29.81S WCI  21
FERGUS FALLS   LGT SNOW  30  25  80 W14       29.85F WCI  20
ELBOW LAKE     LGT SNOW  31  24  72 SW10      29.82F WCI  23
MORRIS MN      CLOUDY    36  19  51 SW12G21   29.82F
STAPLES        FLURRIES  28  18  64 SW9       29.80F WCI  20
WHEATON        PTSUNNY   37  19  48 SW13      29.83F
$$
  *****  WEATHER ELSEWHERE ACROSS MINNESOTA  *****

CITY           SKY/WX    TMP DP  RH WIND       PRES   REMARKS
DULUTH         FAIR      24  13  62 W15       29.76F WCI  11
INTRNTL FALLS  CLOUDY    21  11  65 SW8       29.72F WCI  11
ELY            CLOUDY    21   3  45 W10G18    29.71S WCI  10
CLOQUET        FAIR      27  10  50 W15       29.78F WCI  15
BRAINERD       CLOUDY    30  17  58 SW15      29.80F WCI  19
HIBBING        CLOUDY    22  10  60 W9        29.76S WCI  12
ALEXANDRIA     CLOUDY    33  20  58 SW13      29.81F WCI  24
SAINT CLOUD    CLOUDY    31  17  56 W15       29.85F WCI  20
MINNEAPOLIS    PTSUNNY   32  13  45 W15G23    29.89F WCI  22
$$

  *****  WEATHER ACROSS SOUTH DAKOTA  *****

CITY           SKY/WX    TMP DP  RH WIND       PRES   REMARKS
SIOUX FALLS    PTSUNNY   27  17  66 S17       29.91F WCI  14
BROOKINGS      FAIR      30  17  58 S16       29.85F WCI  19
WATERTOWN      FAIR      34  17  50 SW15      29.81F WCI  24
HURON          PTSUNNY   38  18  44 S7        29.82F
SISSETON         N/A     37  20  50 W16       29.79F
ABERDEEN       PTSUNNY   38  15  39 SW14G21   29.79F
MITCHELL       FAIR      33  21  61 S18       29.87F WCI  22
PIERRE         CLOUDY    37  20  50 NW10      29.80F
MOBRIDGE       CLOUDY    36  23  59 NW20      29.75F
RAPID CITY     LGT SNOW  29  21  72 S3        29.79F
$$

  *****  SOME WEATHER IN NEARBY STATES *****

CITY           SKY/WX    TMP DP  RH WIND       PRES   REMARKS
GLASGOW MT     CLOUDY    29  19  66 NW14      29.70F WCI  18
GREAT FALLS MT PTSUNNY   31   6  35 W20G28    29.70F WCI  19
CHEYENNE WY    FAIR      25   6  44 W18G33    29.78F WCI  11
SCOTTSBLUFF NE FAIR      28  14  55 NW12      29.85F WCI  18
OMAHA NE       PTSUNNY   32  14  47 S15       30.04F WCI  22
DES MOINES IA  PTSUNNY   31  14  49 VRB7      30.06F WCI  24
DAVENPORT IA   FAIR      29  16  58 NW20      30.01R WCI  16
CHICAGO IL     FLURRIES  26  14  60 W18       29.91R WCI  13
EAU CLAIRE WI  FAIR      26   8  46 W8        29.88S WCI  18
LA CROSSE WI   FAIR      28  10  46 NW8       29.95R WCI  20
$$

  *****  SOME NATIONAL WEATHER *****

CITY           SKY/WX    TMP DP  RH WIND       PRES   REMARKS
LA GUARDIA NY  PTSUNNY   63  55  75 S20G31    29.47F
RALEIGH NC     PTSUNNY   77  51  40 SW25G36   29.56F
ATLANTA GA     FAIR      62  17  17 W20G28    29.89R
NEW ORLEANS LA FAIR      68  35  29 NW14      30.04S
OKLAHOMA CITY  FAIR      47  12  24 S8        30.12F
ALBUQUERQUE NM FAIR      48   8  19 S16G24    29.94F
SALT LAKE CITY PTSUNNY   32  19  58 VRB7      30.04F
LOS ANGELES CA PTSUNNY   59  45  59 W14       30.08F
BOISE ID       FAIR      36  16  44 CALM      30.11F
SEATTLE WA     CLOUDY    42  31  64 S8        30.19F
$$

*** WEATHER ACROSS MANITOBA...SASKATCHEWAN AND ONTARIO ***
                ***ONTARIO***

CITY           SKY/WX    TMP DP  RH WIND       PRES   REMARKS
GERALDTON      MOSUNNY   16   0  48 W7G17     29.52S WCI   6
THUNDER BAY    MOSUNNY   25   3  39 NW14G24   29.66S WCI  13
SIOUX LOOKOUT  MOSUNNY   18   0  45 NW14G21   29.65F WCI   4
TORONTO        PTSUNNY   37  23  56 W28G35    29.54R
BIG TROUT LK   CLOUDY     9  -4  56 NW5       29.61F WCI   0
PICKLE LAKE    PTSUNNY   10   0  61 W12G21    29.59R WCI  -4
DRYDEN         PTSUNNY   19   5  53 W13G18    29.66F WCI   7
KENORA         LGT SNOW  18  10  73 SW8       29.68F WCI   7
$$
                *** MANITOBA***

CITY           SKY/WX    TMP DP  RH WIND       PRES   REMARKS
BRANDON        PTSUNNY   12   1  62 NW20G25   29.78F WCI  -6
DAUPHIN        PTSUNNY   14   3  62 W20       29.77F WCI  -3
ISLAND LAKE    MOSUNNY    9  -2  61 W10       29.68F WCI  -6
PILOT MOUND      N/A     14   5  67 NW15G21     N/A  WCI  -1
THE PAS        FLURRIES   7  -2  66 NW14      29.75F WCI -10
THOMPSON       FLURRIES   3  -8  60 W12       29.70S WCI -13
WINNIPEG       PTSUNNY   16  10  79 NW18      29.77S WCI  -1
LYNN LAKE      CLOUDY     0  -8  71 W9        29.68F WCI -16
CHURCHILL      PTSUNNY   -6 -11  77 NW5       29.75F WCI -17
GILLAM         PTSUNNY    3  -8  60 W5        29.69F WCI  -6
$$
                ***SASKATCHEWAN***

CITY           SKY/WX    TMP DP  RH WIND       PRES   REMARKS
ESTEVAN        LGT SNOW  16  10  79 NW5       29.76F FOG     WCI   9
KINDERSLEY     PTSUNNY   19  12  73 SW9       29.69F WCI   9
LLOYDMINSTER   PTSUNNY   18  10  73 SW10      29.64F WCI   6
PRINCE ALBERT  PTSUNNY   16   1  53 W12       29.74F WCI   3
REGINA         FLURRIES  16   9  73 NW12      29.75F WCI   3
YORKTON        FLURRIES  10   1  67 NW14      29.75F WC



USA.gov is the U.S. government's official web portal to all federal, state and local government web resources and services.